This is the latest recevied weather packets stored in our database for station/object OZ1IEP-5. If no packets are shown the sender has not sent any weather packets the latest 10 day(s).
| Time | Temp. | Humidity | Pressure | Rain* | Wind** | Luminosity | Snow |
|---|---|---|---|---|---|---|---|
| 1787392808 | 17.22° C | 75% | 1006.1 hPa | 0 mm | - | 241 W/m² | - |
| 1787392206 | 17.22° C | 76% | 1005.9 hPa | 0 mm | - | 297 W/m² | - |
| 1787391606 | 17.22° C | 76% | 1005.8 hPa | 0 mm | - | 346 W/m² | - |
| 1787391009 | 16.67° C | 77% | 1005.7 hPa | 0 mm | - | 264 W/m² | - |
| 1787390406 | 16.11° C | 79% | 1005.7 hPa | 0 mm | - | 281 W/m² | - |
| 1787389806 | 16.11° C | 81% | 1005.7 hPa | 0 mm | - | 418 W/m² | - |
| 1787389209 | 15.56° C | 82% | 1005.7 hPa | 0 mm | - | 236 W/m² | - |
| 1787388605 | 15.56° C | 83% | 1005.7 hPa | 0 mm | - | 297 W/m² | - |
| 1787388006 | 15.56° C | 82% | 1005.6 hPa | 0 mm | - | 104 W/m² | - |
| 1787387408 | 15.56° C | 81% | 1005.6 hPa | 0 mm | - | 137 W/m² | - |
| 1787386805 | 15.56° C | 80% | 1005.6 hPa | 0 mm | - | 86 W/m² | - |
| 1787386206 | 15.56° C | 81% | 1005.6 hPa | 0 mm | - | 167 W/m² | - |
| 1787385607 | 15.56° C | 80% | 1005.6 hPa | 0 mm | - | 156 W/m² | - |
| 1787385005 | 15.56° C | 80% | 1005.6 hPa | 0 mm | - | 179 W/m² | - |
| 1787384405 | 15° C | 81% | 1005.6 hPa | 0 mm | - | 146 W/m² | - |
| 1787383808 | 15° C | 82% | 1005.6 hPa | 0 mm | - | 105 W/m² | - |
| 1787383207 | 15° C | 81% | 1005.6 hPa | 0 mm | - | 97 W/m² | - |
| 1787382606 | 15° C | 82% | 1005.4 hPa | 0 mm | - | 121 W/m² | - |
| 1787382010 | 15° C | 82% | 1005.3 hPa | 0 mm | - | 107 W/m² | - |
| 1787381407 | 14.44° C | 82% | 1005.3 hPa | 0 mm | - | 95 W/m² | - |
| 1787380810 | 14.44° C | 84% | 1005.3 hPa | 0 mm | - | 84 W/m² | - |
| 1787380212 | 14.44° C | 84% | 1005.3 hPa | 0 mm | - | 84 W/m² | - |
| 1787379607 | 14.44° C | 84% | 1005.5 hPa | 0 mm | - | 54 W/m² | - |
| 1787379008 | 14.44° C | 84% | 1005.6 hPa | 0 mm | - | 58 W/m² | - |
| 1787378409 | 14.44° C | 85% | 1005.6 hPa | 0 mm | - | 77 W/m² | - |
* Rain latest hour (hover to see other rain measurements)
** Current wind speed in m/s (hover to see current wind gust speed)